Stevens Point, WI (54481)

7:52 PM CDT on September 02, 2015 (GMT -0500)
Forest Circle neighborhood | | Change Station
CLOSE
Current Station
Personal Weather Station
Location: Stevens Point, WI
Elevation: 1099 ft
Nearby Weather Stations

Elev 1099 ft 44.50 °N, 89.53 °W | Updated 38 seconds ago

Overcast
Overcast
78.3 °F
Feels Like 81 °F
N
0.0
Wind Variable Wind from South
Gusts 0.0 mph

Today
High -- | Low -- °F
--% Chance of Precip.
Yesterday
High -- | Low -- °F
Precip. -- in
6:21 AM 7:33 PM
Waning Gibbous, 75% visible
Pressure 29.91 in
Visibility 10.0 miles
Clouds Mostly Cloudy 4200 ft
Overcast 5000 ft
Heat Index 81 °F
Dew Point 74 °F
Humidity 86%
Rainfall 0.00 in
Snow Depth Not available.
UV 0.0 out of 12
Pollen 10.00 out of 12
Air Quality Not available.
Flu Activity Not available.
METAR KSTE 030035Z AUTO 06003KT 10SM BKN042 OVC050 22/20 A2991 RMK AO2 LTG DSNT NE T02220196
Pressure 29.91 in
Visibility 10.0 miles
Clouds Mostly Cloudy 4200 ft
Overcast 5000 ft
Heat Index 81 °F
Dew Point 74 °F
Humidity 86%
Rainfall 0.00 in
Snow Depth Not available.
UV 0.0 out of 12
Pollen 10.00 out of 12
Air Quality Not available.
Flu Activity Not available.
METAR KSTE 030035Z AUTO 06003KT 10SM BKN042 OVC050 22/20 A2991 RMK AO2 LTG DSNT NE T02220196

10-Day Weather Forecast

×

Almanac

Astronomy

Sep. 02, 2015 Rise Set
Actual Time
Civil Twilight
Nautical Twilight
Astronomical Twilight
Moon
Length of Visible Light
Length of Day
Tomorrow will be .
, % of the Moon is Illuminated

Today's Extremes

State Highs State Lows

Community

WunderPhotos

Upload Photos

1,851,855 photos uploaded!

WunderBlogs® & News

Nearby

Air Quality

  Air Quality AQ Index Pollutant
Not available.

Snow Depth

Station Depth Elevation

Earthquake Activity

City Distance Mag. Time & Date
Minimum magnitude displayed is 2.5.

Coastal Water Temperatures

Place Temperature

Stations

Nearby Weather Stations

Station Location Temp. Windchill Dew Point Humidity Wind Precip. Elev Updated Type